Location: Unspecified
(0.0000°N, 0.0000°E)
Time: 03:57:57
(UTC+00:00)

Tiangong 2 - Pass Details

Date: 18 June 2019
Orbit: 376 x 388 km, 42.8° (Epoch: 26 June)

Event Time Altitude Azimuth Distance (km) Brightness Sun altitude
Exits shadow 04:44:10 11° 324° (NW) 1,328 3.7 -17.6°
Drops below altitude 10° 04:44:48 10° 336° (NNW) 1,391 3.9 -17.4°
Sets 04:48:03 0° 12° (NNE) 2,243 5.5 -16.7°
